Home > Weather > Colonia > Past weeks

Flag for Micronesia Weather for the Past 2 Weeks in Colonia, Yap, Micronesia

Now
77 °F

Partly cloudy.


Feels Like: 78 °F
Forecast: 76 / 88 °F
Wind: 3 mph from North

Location: Yap Island

Current Time: Feb 7, 2016 at 6:59:11 AM

Latest Report: Feb 7, 2016 at 5:56 AM


Visibility: 12 mi

Pressure: 29.83 "Hg

Humidity: 91%

Dew point: 74 °F

Location of ColoniaLocation

Historic Weather in Colonia — Graph

°F

Colonia Temperature Yesterday

Maximum temperature yesterday: 88 °F (at 9:55 AM)
Minimum temperature yesterday: 76 °F (at 6:52 PM)
Average temperature yesterday: 80 °F

High & Low Weather Summary for the Past Weeks

 TemperatureHumidityPressure
High92 °F (Feb 2, 1:52 PM)94% (Jan 29, 12:50 AM)30.00 "Hg (Jan 29, 12:50 AM)
Low75 °F (Jan 25, 3:58 AM)54% (Jan 24, 12:50 PM)29.75 "Hg (Feb 5, 4:50 PM)
Average82 °F76%29.88 "Hg
* Reported Jan 23 4:50 AM — Feb 7 4:52 AM, Colonia, Weather by CustomWeather, © 2016

Note: Actual official high and low records may vary slightly from our data, if they occured in-between our weather recording intervals... More about our weather records

Advertising

Colonia Weather History for the Previous 24 Hours

 ConditionsComfort  
Time TempWeatherWind HumidityBarometerVisibility
4:52 AM
Sun, Feb 7
78 °FPartly cloudy.No wind92%29.83 "Hg12 mi
3:51 AM79 °FMostly cloudy.3 mph93%29.83 "Hg12 mi
2:52 AM79 °FMostly cloudy.3 mph91%29.83 "Hg12 mi
1:51 AM78 °FPartly cloudy.5 mph91%29.85 "Hg12 mi
12:55 AM78 °FPartly cloudy.6 mph93%29.87 "Hg12 mi
11:54 PM
Sat, Feb 6
78 °FPartly cloudy.6 mph90%29.86 "Hg12 mi
10:50 PM78 °FPartly cloudy.6 mph90%29.86 "Hg12 mi
9:51 PM78 °FPartly cloudy.5 mph90%29.86 "Hg12 mi
8:55 PM77 °FPartly cloudy.8 mph91%29.85 "Hg12 mi
7:55 PM76 °FMostly cloudy.5 mph94%29.84 "Hg12 mi
6:52 PM76 °FMostly cloudy.9 mph94%29.80 "Hg12 mi
5:52 PM78 °FSprinkles. Mostly cloudy.6 mph94%29.79 "Hg9 mi
4:55 PM78 °FBroken clouds.8 mph94%29.78 "Hg12 mi
3:55 PM78 °FBroken clouds.10 mph94%29.79 "Hg12 mi
2:53 PM78 °FBroken clouds.10 mph93%29.78 "Hg12 mi
1:55 PM81 °FBroken clouds.8 mph89%29.81 "Hg12 mi
12:53 PM85 °FScattered clouds.12 mph72%29.83 "Hg12 mi
11:52 AM88 °FScattered clouds.12 mph65%29.84 "Hg12 mi
10:50 AM88 °FScattered clouds.12 mph66%29.85 "Hg12 mi
9:55 AM88 °FScattered clouds.10 mph64%29.86 "Hg12 mi
8:51 AM83 °FScattered clouds.9 mph75%29.85 "Hg12 mi
7:53 AM80 °FPartly cloudy.2 mph83%29.83 "Hg12 mi
6:50 AM77 °FPartly cloudy.3 mph88%29.81 "Hg12 mi
Weather by CustomWeather, © 2016

See weather overviewHow to use our weather pages